User: anonymous   Login
Location: Unspecified
(0.0000°N, 0.0000°E)
Time: 20:05:33
(UTC+00:00)
Language:

OBJECT L - Orbit

View from above orbital plane
View from above orbital plane
View from above satellite
View from above satellite

Ground track
Ground track

The orbit is defined by the following mean orbital elements,

1 54692U          26145.60843416 +.00000000 +00000-0 +31117-3 0 00005
2 54692  97.6916 314.2677 0007545 189.0502 171.0604 15.33286545    03
Epoch (UTC): 25 May 2026 14:36:08
Eccentricity: 0.0007545
inclination: 97.6916°
perigee height: 461 km
apogee height: 471 km
right ascension of ascending node: 314.2677°
argument of perigee: 189.0502°
revolutions per day: 15.33286545
mean anomaly at epoch: 171.0604°

The dashed part of the orbit path shows where the satellite is in the earth's shadow,  

DLR